Terminal Aerodrome Forecast
Issued by NWS

Home | Current Version | Previous Version | Text Only | Print | Product List | Glossary On
Versions: 1 2 3 4 5 6 7 8 9 10 11 12 13 14 15 16 17 18 19 20 21 22 23 24 25 26 27 28 29 30 31 32 33 34 35 36 37 38 39
000
FTUS46 KEKA 020539
TAFCEC
TAF
KCEC 020539Z 0206/0306 VRB03KT P6SM SCT006 OVC010
     FM020800 VRB03KT P6SM BKN006 OVC010
     FM021000 VRB03KT 3SM BR BKN003 OVC006
     FM021800 20004KT 6SM BR SCT003 BKN006 OVC100
     FM022100 19005KT P6SM SCT006 SCT015 BKN100
     FM030400 20005KT 6SM BR SCT006 BKN012 BKN100=

USA.gov is the U.S. government's official web portal to all federal, state and local government web resources and services.